Weather History for Safford, AZ

Change the Weather History Date:

Wednesday, February 6, 2013

  Actual Average Record
Temperature  
Mean Temperature 52 °F -  
Max Temperature 66 °F 63 °F 80 °F (1963)
Min Temperature 39 °F 31 °F 12 °F (1955)
Degree Days  
Heating Degree Days 12    
Growing Degree Days 2 (Base 50)    
Moisture  
Dew Point 33 °F    
Average Humidity 48    
Maximum Humidity 67    
Minimum Humidity 30    
Precipitation  
Precipitation 0.00 in - - ()
Sea Level Pressure  
Sea Level Pressure 29.90 in    
Wind  
Wind Speed 5 mph (NNW)    
Max Wind Speed 14 mph    
Max Gust Speed -    
Visibility 10 miles    
Events      
Averages and records for this station are not official NWS values.
T = Trace of Precipitation, MM = Missing Value Source: NWS Daily Summary

Daily Weather History Graph

Daily Weather History Graph

Search for Another Location

Airport:

Trip Planner

Search our weather history database for the weather conditions in past years. The results will help you decide how hot, cold, wet, or windy it might be!

Date:

Astronomy

Feb. 06, 2013 Rise Set
Actual Time 7:09 AM MST 5:56 PM MST
Civil Twilight 6:43 AM MST 6:21 PM MST
Nautical Twilight 6:14 AM MST 6:51 PM MST
Astronomical Twilight 5:45 AM MST 7:19 PM MST
Moon 3:50 AM MST (2/6) 2:23 PM MST (2/6)
Length of Visible Light 11h 37m
Length of Day
10h 46m
Waning Crescent, 16% of the Moon is Illuminated
Feb 6
Waning Crescent
Feb 10
New
Feb 17
First Quarter
Feb 25
Full
Mar 4
Last Quarter

Hourly Weather History & Observations

Time (MST) Temp. Windchill Dew Point Humidity Pressure Visibility Wind Dir Wind Speed Gust Speed Precip Events Conditions
12:51 AM 46.0 °F 44.8 °F 30.9 °F 56% 29.89 in 10.0 mi North 3.5 mph - N/A   Clear
1:51 AM 43.0 °F 41.3 °F 30.0 °F 60% 29.89 in 10.0 mi East 3.5 mph - N/A   Clear
2:51 AM 43.0 °F - 30.0 °F 60% 29.88 in 10.0 mi Calm Calm - N/A   Clear
3:51 AM 39.9 °F - 28.9 °F 65% 29.88 in 10.0 mi Calm Calm - N/A   Clear
4:51 AM 43.0 °F - 30.0 °F 60% 29.88 in 10.0 mi Calm Calm - N/A   Clear
5:51 AM 39.0 °F - 28.9 °F 67% 29.90 in 10.0 mi Calm Calm - N/A   Clear
6:51 AM 39.0 °F 36.8 °F 28.9 °F 67% 29.92 in 10.0 mi South 3.5 mph - N/A   Clear
7:51 AM 39.0 °F 36.8 °F 28.9 °F 67% 29.94 in 10.0 mi ESE 3.5 mph - N/A   Clear
8:51 AM 46.9 °F - 30.9 °F 54% 29.95 in 10.0 mi SE 5.8 mph - N/A   Clear
9:51 AM 54.0 °F - 32.0 °F 43% 29.93 in 10.0 mi SE 8.1 mph - N/A   Clear
10:51 AM 57.0 °F - 33.1 °F 40% 29.93 in 10.0 mi SE 5.8 mph - N/A   Clear
11:51 AM 61.0 °F - 33.1 °F 35% 29.91 in 10.0 mi Calm Calm - N/A   Clear
12:51 PM 64.0 °F - 34.0 °F 33% 29.88 in 10.0 mi Calm Calm - N/A   Clear
1:51 PM 66.0 °F - 34.0 °F 30% 29.86 in 10.0 mi NW 8.1 mph - N/A   Clear
2:51 PM 66.9 °F - 34.0 °F 30% 29.84 in 10.0 mi West 10.4 mph - N/A   Clear
3:51 PM 66.0 °F - 34.0 °F 30% 29.86 in 10.0 mi WNW 13.8 mph - N/A   Clear
4:51 PM 66.0 °F - 35.1 °F 32% 29.85 in 10.0 mi North 10.4 mph - N/A   Clear
5:51 PM 63.0 °F - 34.0 °F 34% 29.88 in 10.0 mi WNW 12.7 mph - N/A   Clear
6:51 PM 60.1 °F - 35.1 °F 39% 29.91 in 10.0 mi NW 11.5 mph - N/A   Mostly Cloudy
7:51 PM 57.0 °F - 35.1 °F 44% 29.94 in 10.0 mi NW 10.4 mph - N/A   Clear
8:51 PM 55.9 °F - 36.0 °F 47% 29.94 in 10.0 mi NNW 12.7 mph - N/A   Clear
9:51 PM 54.0 °F - 35.1 °F 49% 29.95 in 10.0 mi NW 10.4 mph - N/A   Clear
10:51 PM 52.0 °F - 35.1 °F 53% 29.95 in 10.0 mi NNW 12.7 mph - N/A   Clear
11:51 PM 52.0 °F - 35.1 °F 53% 29.96 in 10.0 mi NW 10.4 mph - N/A   Clear